Flag for Puerto Rico Weather past 2 weeks in San Juan, Puerto Rico

Now
80 °F

Scattered clouds.


Feels Like: 85 °F
Forecast: 80 / 87 °F
Wind: No wind

Location: Luis Munoz Marin

Current Time: Aug 2, 2015 at 8:36:44 AM

Latest Report: Aug 2, 2015 at 7:56 AM


Visibility: 10 mi

Pressure: 29.98 "Hg

Humidity: 87%

Dew point: 76 °F

Location of San JuanLocation

Historic Weather in San Juan — Graph

°F

San Juan temperature yesterday

Maximum temperature yesterday: 90 °F (at 11:56 AM)
Minimum temperature yesterday: 79 °F (at 5:56 AM)
Average temperature yesterday: 84 °F

Past Weeks' High & Low Weather Summary

 TemperatureHumidityPressure
High93 °F (Jul 22, 2:56 PM)100% (Jul 21, 4:56 AM)30.12 "Hg (Jul 21, 4:56 AM)
Low76 °F (Jul 19, 3:56 AM)52% (Jul 22, 2:56 PM)29.96 "Hg (Jul 21, 4:56 PM)
Average83 °F78%30.04 "Hg
* Reported Jul 18 6:56 AM — Aug 2 6:56 AM, San Juan, Weather by CustomWeather, © 2015

Note: Actual official high and low records may vary slightly from our data, if they occured in-between our weather recording intervals... More about our weather records

Advertising

San Juan weather history for previous 24 hours

 ConditionsComfort  
Time TempWeatherWind HumidityBarometerVisibility
6:56 AM
Sun, Aug 2
78 °FPartly cloudy.3 mph90%29.98 "Hg10 mi
5:56 AM77 °FPassing clouds.No wind94%29.97 "Hg10 mi
4:56 AM76 °FPassing clouds.No wind94%29.97 "Hg10 mi
3:56 AM79 °FPassing clouds.No wind90%29.97 "Hg10 mi
2:56 AM81 °FLight rain. Passing clouds.8 mph79%29.98 "Hg10 mi
1:56 AM81 °FPassing clouds.9 mph82%29.99 "Hg10 mi
12:56 AM81 °FPassing clouds.8 mph77%30.01 "Hg10 mi
11:56 PM
Sat, Aug 1
82 °FPassing clouds.10 mph77%30.02 "Hg10 mi
10:56 PM82 °FPassing clouds.10 mph77%30.03 "Hg10 mi
9:56 PM82 °FPassing clouds.13 mph79%30.02 "Hg10 mi
8:56 PM82 °FPassing clouds.12 mph79%30.01 "Hg10 mi
7:56 PM83 °FScattered clouds.8 mph77%30.01 "Hg10 mi
6:56 PM83 °FScattered clouds.13 mph77%29.99 "Hg10 mi
5:56 PM85 °FScattered clouds.14 mph75%29.98 "Hg10 mi
4:56 PM86 °FScattered clouds.18 mph67%29.97 "Hg10 mi
3:56 PM88 °FScattered clouds.15 mph65%29.98 "Hg10 mi
2:56 PM88 °FScattered clouds.20 mph65%29.99 "Hg10 mi
1:56 PM89 °FScattered clouds.15 mph65%30.01 "Hg10 mi
12:56 PM89 °FScattered clouds.18 mph65%30.03 "Hg10 mi
11:56 AM90 °FScattered clouds.17 mph61%30.04 "Hg10 mi
10:56 AM89 °FScattered clouds.17 mph63%30.05 "Hg10 mi
9:56 AM87 °FScattered clouds.18 mph67%30.05 "Hg10 mi
8:56 AM84 °FScattered clouds.12 mph74%30.04 "Hg10 mi
Weather by CustomWeather, © 2015

See weather overviewHow to use our weather pages